Cape Cod CGAS, MA

7:54 PM EST on December 16, 2017 (GMT -0500)
Cape Cod Coast Guard Air Station

Weather History for KFMH - January, 2013

Change the Weather History Date:

Friday, January 18, 2013

  Actual Average Record
Temperature  
Mean Temperature 23 °F -  
Max Temperature 32 °F 32 °F 55 °F (2006)
Min Temperature 12 °F 16 °F 0 °F (2005)
Degree Days  
Heating Degree Days 42    
Moisture  
Dew Point 5 °F    
Average Humidity 50    
Maximum Humidity 93    
Minimum Humidity 19    
Precipitation  
Precipitation 0.01 in - - ()
Sea Level Pressure  
Sea Level Pressure 30.29 in    
Wind  
Wind Speed 11 mph (NNW)    
Max Wind Speed 26 mph    
Max Gust Speed 30 mph    
Visibility 8 miles    
Events Fog , Rain , Snow    
Averages and records for this station are not official NWS values.
T = Trace of Precipitation, MM = Missing Value Source: NWS Daily Summary

Daily Weather History Graph

Daily Weather History Graph

Search for Another Location

Airport or City:

Trip Planner

Search our weather history database for the weather conditions in past years. The results will help you decide how hot, cold, wet, or windy it might be!

Date:

Astronomy

Jan. 18, 2013 Rise Set
Actual Time 7:05 AM EST 4:40 PM EST
Civil Twilight 6:34 AM EST 5:11 PM EST
Nautical Twilight 6:00 AM EST 5:45 PM EST
Astronomical Twilight 5:27 AM EST 6:18 PM EST
Moon 10:35 AM EST (1/18) No Moon Set
Length of Visible Light 10h 36m
Length of Day
9h 35m
Waxing Crescent, 47% of the Moon is Illuminated
Jan 18
Waxing Crescent
Jan 18
First Quarter
Jan 26
Full
Feb 3
Last Quarter
Feb 10
New

Hourly Weather History & Observations

Time (EST) Temp. Windchill Dew Point Humidity Pressure Visibility Wind Dir Wind Speed Gust Speed Precip Events Conditions
12:15 AM 32.0 °F 23.6 °F 21.2 °F 64% 30.06 in 10.0 mi North 10.4 mph - N/A Rain Light Rain
12:35 AM 32.0 °F 23.6 °F 23.0 °F 69% 30.04 in 4.0 mi North 10.4 mph 16.1 mph N/A Snow Light Snow
12:55 AM 30.2 °F 21.3 °F 24.8 °F 80% 30.04 in 4.0 mi North 10.4 mph - 0.06 in Snow Light Snow
1:15 AM 30.2 °F 23.4 °F 23.0 °F 75% 30.03 in 9.0 mi NNE 6.9 mph - N/A Rain Light Freezing Rain
1:35 AM 30.2 °F 19.8 °F 21.2 °F 69% 30.03 in 7.0 mi North 13.8 mph 24.2 mph N/A Rain Light Freezing Rain
1:55 AM 28.4 °F 19.7 °F 23.0 °F 80% 30.04 in 1.8 mi NNE 9.2 mph 19.6 mph 0.05 in Snow Light Snow
2:15 AM 28.4 °F 19.1 °F 23.0 °F 80% 30.03 in 2.5 mi North 10.4 mph 18.4 mph 0.02 in Snow Light Snow
2:35 AM 28.4 °F 18.5 °F 21.2 °F 74% 30.06 in 1.8 mi North 11.5 mph 23.0 mph 0.06 in Snow Light Snow
2:55 AM 26.6 °F 15.7 °F 19.4 °F 74% 30.08 in 2.0 mi North 12.7 mph 23.0 mph 0.12 in Snow Light Snow
3:15 AM 24.8 °F 14.0 °F 21.2 °F 86% 30.03 in 0.8 mi North 11.5 mph 20.7 mph 0.12 in Snow Light Snow
3:35 AM 24.8 °F 14.0 °F 23.0 °F 93% 30.07 in 1.0 mi North 11.5 mph 20.7 mph 0.49 in Snow Light Snow
3:55 AM 24.8 °F 14.6 °F 23.0 °F 93% 30.07 in 0.8 mi North 10.4 mph 18.4 mph 0.95 in Snow Light Snow
4:15 AM 24.8 °F 14.6 °F 23.0 °F 93% 30.05 in 0.8 mi North 10.4 mph 18.4 mph 0.68 in Snow Light Snow
4:35 AM 24.8 °F 16.9 °F 23.0 °F 93% 30.07 in 1.2 mi North 6.9 mph - 1.45 in Snow Light Snow
4:55 AM 24.8 °F 12.9 °F 23.0 °F 93% 30.06 in 1.5 mi North 13.8 mph 20.7 mph 1.93 in Snow Light Snow
5:15 AM 24.8 °F 16.1 °F 19.4 °F 80% 30.06 in 10.0 mi NNE 8.1 mph 16.1 mph 0.08 in Snow Light Snow
5:35 AM 26.6 °F 14.7 °F 12.2 °F 55% 30.09 in 10.0 mi North 15.0 mph 19.6 mph 0.16 in Snow Light Snow
5:55 AM 26.6 °F 14.7 °F 10.4 °F 51% 30.11 in 10.0 mi North 15.0 mph 21.9 mph 0.20 in Snow Light Snow
6:15 AM 24.8 °F 13.4 °F 8.6 °F 50% 30.13 in 10.0 mi North 12.7 mph 23.0 mph 0.04 in Snow Light Snow
6:35 AM 24.8 °F 13.4 °F 6.8 °F 46% 30.14 in 10.0 mi NNW 12.7 mph 19.6 mph 0.08 in Snow Light Snow
6:55 AM 24.8 °F 12.4 °F 5.0 °F 43% 30.16 in 10.0 mi NNW 15.0 mph 24.2 mph 0.17 in Snow Light Snow
7:15 AM 23.0 °F 10.6 °F 3.2 °F 43% 30.19 in 10.0 mi NNW 13.8 mph 24.2 mph 0.07 in Snow Light Snow
7:35 AM 23.0 °F 11.7 °F 1.4 °F 39% 30.19 in 10.0 mi North 11.5 mph 18.4 mph 0.14 in Snow Light Snow
7:55 AM 23.0 °F 11.7 °F 1.4 °F 39% 30.21 in 10.0 mi North 11.5 mph 20.7 mph 0.16 in Snow Light Snow
8:15 AM 23.0 °F 12.4 °F 3.2 °F 43% 30.23 in 10.0 mi North 10.4 mph 16.1 mph 0.01 in Rain Light Freezing Rain
8:35 AM 23.0 °F 10.1 °F -0.4 °F 36% 30.24 in 10.0 mi NNW 15.0 mph 24.2 mph 0.02 in Rain Light Freezing Rain
8:55 AM 23.0 °F 10.1 °F -0.4 °F 36% 30.26 in 10.0 mi North 15.0 mph 23.0 mph 0.03 in Rain Light Freezing Rain
9:15 AM 23.0 °F 8.3 °F -2.2 °F 33% 30.28 in 10.0 mi NNW 19.6 mph 29.9 mph N/A Rain Light Freezing Rain
9:35 AM 23.0 °F 10.6 °F -0.4 °F 36% 30.30 in 10.0 mi NNW 13.8 mph 20.7 mph N/A Rain Light Freezing Rain
9:55 AM 23.0 °F 10.6 °F -2.2 °F 33% 30.31 in 10.0 mi NNW 13.8 mph 23.0 mph N/A Rain Light Freezing Rain
10:15 AM 23.0 °F 10.1 °F -4.0 °F 31% 30.32 in 10.0 mi North 15.0 mph 26.5 mph N/A Rain Light Freezing Rain
10:35 AM 23.0 °F 10.1 °F -5.8 °F 28% 30.32 in 10.0 mi North 15.0 mph 25.3 mph N/A Rain Light Freezing Rain
10:55 AM 23.0 °F 10.1 °F -5.8 °F 28% 30.33 in 10.0 mi North 15.0 mph 29.9 mph N/A Rain Light Freezing Rain
11:15 AM 23.0 °F 11.1 °F -5.8 °F 28% 30.33 in 10.0 mi NNW 12.7 mph 24.2 mph N/A Rain Light Freezing Rain
11:35 AM 23.0 °F 9.6 °F -4.0 °F 31% 30.33 in 10.0 mi NNW 16.1 mph 23.0 mph N/A Rain Light Freezing Rain
11:55 AM 23.0 °F 10.6 °F -4.0 °F 31% 30.33 in 10.0 mi NNW 13.8 mph 24.2 mph N/A Rain Light Freezing Rain
12:15 PM 23.0 °F 11.1 °F -4.0 °F 31% 30.33 in 10.0 mi NNW 12.7 mph 23.0 mph N/A   Unknown
12:35 PM 23.0 °F 9.6 °F -2.2 °F 33% 30.34 in 10.0 mi NW 16.1 mph 21.9 mph N/A   Unknown
12:55 PM 23.0 °F 10.1 °F -2.2 °F 33% 30.34 in 10.0 mi WNW 15.0 mph 19.6 mph N/A   Unknown
1:15 PM 24.8 °F 13.4 °F -2.2 °F 31% 30.35 in 10.0 mi WNW 12.7 mph 23.0 mph N/A   Unknown
1:35 PM 24.8 °F 14.0 °F -4.0 °F 28% 30.36 in 10.0 mi NW 11.5 mph 25.3 mph N/A   Unknown
1:55 PM 24.8 °F 14.0 °F -4.0 °F 28% 30.36 in 10.0 mi NNW 11.5 mph 20.7 mph N/A   Unknown
2:15 PM 24.8 °F 11.9 °F -4.0 °F 28% 30.37 in 10.0 mi NW 16.1 mph 23.0 mph N/A   Unknown
2:35 PM 24.8 °F 13.4 °F -4.0 °F 28% 30.37 in 10.0 mi NW 12.7 mph 21.9 mph N/A   Unknown
2:55 PM 24.8 °F 14.0 °F -4.0 °F 28% 30.37 in 10.0 mi NW 11.5 mph 17.3 mph N/A   Unknown
3:15 PM 24.8 °F 15.3 °F -4.0 °F 28% 30.38 in 10.0 mi NNW 9.2 mph - N/A   Unknown
3:35 PM 24.8 °F 14.6 °F -2.2 °F 31% 30.39 in 10.0 mi WNW 10.4 mph - N/A   Unknown
3:55 PM 24.8 °F 12.9 °F -2.2 °F 31% 30.40 in 10.0 mi WNW 13.8 mph 20.7 mph N/A   Unknown
4:15 PM 23.0 °F 13.9 °F -4.0 °F 31% 30.41 in 10.0 mi WNW 8.1 mph - N/A   Unknown
4:35 PM 23.0 °F 17.0 °F -2.2 °F 33% 30.41 in 10.0 mi NW 4.6 mph - N/A   Unknown
4:55 PM 21.2 °F 14.9 °F -2.2 °F 36% 30.42 in 10.0 mi WNW 4.6 mph - N/A   Unknown
5:15 PM 21.2 °F 14.9 °F -2.2 °F 36% 30.42 in 10.0 mi WNW 4.6 mph - N/A   Unknown
5:35 PM 19.4 °F - -0.4 °F 42% 30.43 in 10.0 mi Calm Calm - N/A   Unknown
5:55 PM 19.4 °F 11.5 °F -0.4 °F 42% 30.43 in 10.0 mi NW 5.8 mph - N/A   Unknown
6:15 PM 17.6 °F 10.7 °F -0.4 °F 45% 30.44 in 10.0 mi WNW 4.6 mph - N/A   Unknown
6:35 PM 17.6 °F 12.3 °F -0.4 °F 45% 30.45 in 10.0 mi West 3.5 mph - N/A   Unknown
6:55 PM 15.8 °F 10.2 °F -0.4 °F 49% 30.46 in 10.0 mi WNW 3.5 mph - N/A   Unknown
7:15 PM 17.6 °F - 1.4 °F 49% 30.46 in 10.0 mi Calm Calm - N/A   Unknown
7:35 PM 15.8 °F 7.2 °F 1.4 °F 53% 30.48 in 10.0 mi West 5.8 mph - N/A   Unknown
7:55 PM 17.6 °F 9.3 °F 1.4 °F 49% 30.48 in 10.0 mi West 5.8 mph - N/A   Unknown
8:15 PM 17.6 °F 12.3 °F 1.4 °F 49% 30.48 in 10.0 mi West 3.5 mph - N/A   Unknown
8:35 PM 15.8 °F 7.2 °F 1.4 °F 53% 30.48 in 10.0 mi West 5.8 mph - N/A   Unknown
8:55 PM 17.6 °F 10.7 °F 1.4 °F 49% 30.48 in 10.0 mi SSW 4.6 mph - N/A   Unknown
9:15 PM 17.6 °F 9.3 °F 3.2 °F 53% 30.48 in 10.0 mi WSW 5.8 mph - N/A   Unknown
9:35 PM 17.6 °F 10.7 °F 3.2 °F 53% 30.48 in 10.0 mi West 4.6 mph - N/A   Unknown
9:55 PM 17.6 °F 9.3 °F 3.2 °F 53% 30.46 in 10.0 mi WSW 5.8 mph - N/A   Unknown
10:15 PM 15.8 °F - 5.0 °F 62% 30.46 in 10.0 mi Calm Calm - N/A   Unknown
10:35 PM 14.0 °F - 5.0 °F 67% 30.45 in 10.0 mi Calm Calm - N/A   Unknown
10:55 PM 15.8 °F - 5.0 °F 62% 30.45 in 10.0 mi Calm Calm - N/A   Unknown
11:15 PM 14.0 °F - 5.0 °F 67% 30.44 in 10.0 mi Calm Calm - N/A   Unknown
11:35 PM 14.0 °F - 6.8 °F 73% 30.44 in 10.0 mi Calm Calm - N/A   Unknown
11:55 PM 12.2 °F - 6.8 °F 79% 30.44 in 10.0 mi Calm Calm - N/A   Unknown